Home   Weather   Barysaw   Past weeks

Flag for Belarus Past Weather in Barysaw, Belarus — Yesterday and Last 2 Weeks

Now
27 °F

Clear.


Feels Like: 27 °F
Forecast: 15 / 24 °F
Wind: 1 mph from Northeast

Location: Minsk

Current Time: Dec 11, 2016 at 7:25:53 am

Latest Report: Dec 11, 2016 at 7:00 am


Visibility: 10 mi

Pressure: 29.83 "Hg

Humidity: 93%

Dew Point: 25 °F

Location of BarysawLocation

Past Weather in Barysaw — Graph

°F

Barysaw Temperature Yesterday

Maximum temperature yesterday: 41 °F (at 12:00 am)
Minimum temperature yesterday: 28 °F (at 11:30 pm)
Average temperature yesterday: 38 °F

High & Low Weather Summary for the Past Weeks

 TemperatureHumidityPressure
High43 °F (Dec 8, 10:30 pm)100% (Nov 26, 6:00 am)30.51 "Hg (Nov 26, 6:00 am)
Low3 °F (Dec 5, 1:00 am)68% (Dec 6, 8:00 pm)29.39 "Hg (Nov 27, 3:30 pm)
Average28 °F91%29.82 "Hg
* Reported Nov 26 6:00 am — Dec 11 6:00 am, Barysaw, Weather by CustomWeather, © 2016

Note: Actual official high and low records may vary slightly from our data, if they occured in-between our weather recording intervals... More about our weather records

Advertising

Barysaw Weather History for the Previous 24 Hours

Scroll right to see more
 ConditionsComfort  
Time TempWeatherWind HumidityBarometerVisibility
6:00 am
Sun, Dec 11
25 °FClear.No wind93%29.83 "Hg10 mi
5:30 am25 °FClear.1 mph100%29.83 "Hg10 mi
5:00 am25 °FClear.3 mph93%29.83 "Hg10 mi
4:30 am25 °FClear.3 mph93%29.80 "Hg10 mi
4:00 am25 °FClear.3 mph93%29.80 "Hg10 mi
3:30 am27 °FClear.3 mph86%29.80 "Hg10 mi
3:00 am27 °FClear.6 mph86%29.80 "Hg10 mi
2:30 am28 °FClear.6 mph86%29.80 "Hg10 mi
2:00 am28 °FClear.6 mph86%29.80 "Hg10 mi
1:30 am28 °FClear.6 mph86%29.77 "Hg10 mi
1:00 am28 °FClear.6 mph86%29.77 "Hg10 mi
12:30 am28 °FClear.6 mph86%29.77 "Hg10 mi
12:00 am28 °FClear.8 mph80%29.74 "Hg10 mi
11:30 pm
Sat, Dec 10
28 °FClear.8 mph86%29.74 "Hg10 mi
11:00 pm30 °FClear.10 mph80%29.74 "Hg10 mi
10:30 pm30 °FClear.8 mph86%29.71 "Hg10 mi
10:00 pm30 °FClear.8 mph86%29.71 "Hg10 mi
9:30 pm30 °FPassing clouds.8 mph86%29.71 "HgN/A
9:00 pm30 °FPassing clouds.10 mph86%29.71 "HgN/A
8:30 pm32 °FPassing clouds.8 mph87%29.68 "HgN/A
8:00 pm32 °FSnow flurries. Mostly cloudy.8 mph100%29.68 "Hg4 mi
7:30 pm32 °FLight snow. Mostly cloudy.8 mph100%29.68 "Hg4 mi
7:00 pm34 °FLight snow. Mostly cloudy.10 mph93%29.65 "HgN/A
6:56 pm36 °FLight rain. Low clouds.10 mph93%29.65 "Hg4 mi
6:30 pm36 °FDrizzle. Low clouds.8 mph93%29.65 "Hg4 mi
6:00 pm36 °FLight rain. Mostly cloudy.6 mph93%29.65 "HgN/A
5:30 pm36 °FLight rain. Mostly cloudy.6 mph100%29.65 "Hg6 mi
5:00 pm37 °FLight rain. Mostly cloudy.10 mph93%29.65 "HgN/A
4:30 pm37 °FLight rain. Mostly cloudy.6 mph100%29.65 "HgN/A
4:00 pm37 °FLight rain. Mostly cloudy.6 mph100%29.65 "HgN/A
3:30 pm39 °FLight rain. Mostly cloudy.6 mph93%29.65 "HgN/A
3:00 pm39 °FLight rain. Mostly cloudy.8 mph93%29.65 "HgN/A
2:30 pm39 °FLight rain. Mostly cloudy.8 mph93%29.65 "HgN/A
2:00 pm41 °FLight rain. Mostly cloudy.6 mph93%29.65 "HgN/A
1:30 pm41 °FLight rain. Mostly cloudy.6 mph93%29.68 "HgN/A
1:00 pm41 °FLight rain. Mostly cloudy.3 mph93%29.68 "HgN/A
12:30 pm41 °FLight rain. Overcast.6 mph93%29.68 "HgN/A
12:00 pm41 °FLight rain. Overcast.8 mph93%29.68 "HgN/A
11:30 am41 °FOvercast.10 mph87%29.68 "HgN/A
11:00 am41 °FOvercast.8 mph87%29.68 "HgN/A
10:30 am41 °FOvercast.8 mph87%29.71 "HgN/A
10:00 am41 °FOvercast.8 mph87%29.71 "HgN/A
9:30 am41 °FOvercast.8 mph87%29.71 "HgN/A
9:00 am41 °FOvercast.10 mph87%29.71 "HgN/A
8:30 am41 °FOvercast.10 mph87%29.71 "HgN/A
8:00 am41 °FOvercast.10 mph87%29.71 "HgN/A
7:30 am41 °FOvercast.10 mph87%29.71 "HgN/A
7:00 am41 °FOvercast.10 mph87%29.71 "HgN/A
Weather by CustomWeather, © 2016

See weather overviewHow to use our weather pages